This is the latest recevied weather packets stored in our database for station/object W0AVQ. If no packets are shown the sender has not sent any weather packets the latest 1 day(s).
| Time | Temp. | Humidity | Pressure | Rain* | Wind** | Luminosity | Snow |
|---|---|---|---|---|---|---|---|
| 1778006006 | 16.67° C | 99% | 1009.2 hPa | 1.78 mm | 0 m/s | 23 W/m² | - |
| 1778005703 | 16.67° C | 99% | 1009.2 hPa | 0 mm | 0 m/s | 46 W/m² | - |
| 1778005400 | 16.67° C | 99% | 1009 hPa | 1.27 mm | 0 m/s | 50 W/m² | - |
| 1778005097 | 16.67° C | 99% | 1008.6 hPa | 1.27 mm | 0 m/s | 52 W/m² | - |
| 1778004794 | 16.67° C | 99% | 1009.1 hPa | 0 mm | 0 m/s | 29 W/m² | - |
| 1778004491 | 16.67° C | 99% | 1009.1 hPa | 0 mm | 0 m/s | 49 W/m² | - |
| 1778004187 | 16.67° C | 99% | 1009.2 hPa | 0 mm | 0 m/s | 41 W/m² | - |
| 1778003884 | 16.67° C | 99% | 1009.1 hPa | 0 mm | 0 m/s | 32 W/m² | - |
| 1778003580 | 16.67° C | 99% | 1009.3 hPa | 0 mm | 0 m/s | 26 W/m² | - |
| 1778003276 | 16.67° C | 99% | 1009.3 hPa | 0 mm | 0.45 m/s, 191° | 30 W/m² | - |
| 1778002974 | 16.67° C | 99% | 1009.4 hPa | 0 mm | 0 m/s | 41 W/m² | - |
| 1778002670 | 16.67° C | 99% | 1009.3 hPa | 0 mm | 0 m/s | 29 W/m² | - |
| 1778002367 | 16.67° C | 99% | 1009.3 hPa | 0 mm | 0 m/s | 30 W/m² | - |
| 1778002063 | 16.67° C | 99% | 1009.1 hPa | 0 mm | 0 m/s | 48 W/m² | - |
| 1778001761 | 16.67° C | 99% | 1009.6 hPa | 0 mm | 0 m/s | 71 W/m² | - |
| 1778001460 | 16.67° C | 99% | 1009.5 hPa | 0 mm | 0 m/s | 63 W/m² | - |
| 1778001158 | 16.67° C | 99% | 1009.4 hPa | 0 mm | 0.45 m/s, 199° | 87 W/m² | - |
| 1778000854 | 16.67° C | 99% | 1010 hPa | 0 mm | 0 m/s | 75 W/m² | - |
| 1778000551 | 16.67° C | 99% | 1009.7 hPa | 0 mm | 0.45 m/s, 196° | 39 W/m² | - |
| 1778000247 | 16.67° C | 99% | 1009.8 hPa | 0 mm | 0 m/s | 56 W/m² | - |
| 1777999943 | 16.67° C | 99% | 1010 hPa | 1.78 mm | 0 m/s | 59 W/m² | - |
| 1777999638 | 16.67° C | 99% | 1010.1 hPa | 3.05 mm | 0.89 m/s, 194° | 40 W/m² | - |
| 1777999336 | 16.67° C | 99% | 1010 hPa | 1.27 mm | 0 m/s | 63 W/m² | - |
| 1777999034 | 16.67° C | 99% | 1010 hPa | 0 mm | 0 m/s | 28 W/m² | - |
| 1777998732 | 16.67° C | 99% | 1010 hPa | 0 mm | 0 m/s | 33 W/m² | - |
* Rain latest hour (hover to see other rain measurements)
** Current wind speed in m/s (hover to see current wind gust speed)